Weather History for Greenville, AL

Change the Weather History Date:

Wednesday, March 27, 2013

  Actual Average Record
Temperature  
Mean Temperature 43 °F -  
Max Temperature 59 °F 70 °F 89 °F (1929)
Min Temperature 27 °F 45 °F 21 °F (1955)
Degree Days  
Heating Degree Days 22    
Moisture  
Dew Point 26 °F    
Average Humidity 55    
Maximum Humidity 89    
Minimum Humidity 23    
Precipitation  
Precipitation 0.00 in - - ()
Sea Level Pressure  
Sea Level Pressure 30.34 in    
Wind  
Wind Speed 4 mph (NNW)    
Max Wind Speed 10 mph    
Max Gust Speed 16 mph    
Visibility 10 miles    
Events      
Averages and records for this station are not official NWS values.
T = Trace of Precipitation, MM = Missing Value Source: NWS Daily Summary

Daily Weather History Graph

Daily Weather History Graph

Search for Another Location

Airport:

Trip Planner

Search our weather history database for the weather conditions in past years. The results will help you decide how hot, cold, wet, or windy it might be!

Date:

Astronomy

Mar. 27, 2013 Rise Set
Actual Time 6:40 AM CDT 7:02 PM CDT
Civil Twilight 6:16 AM CDT 7:27 PM CDT
Nautical Twilight 5:47 AM CDT 7:56 PM CDT
Astronomical Twilight 5:18 AM CDT 8:25 PM CDT
Moon 7:40 PM CDT (3/27) 6:34 AM CDT (3/27)
Length of Visible Light 13h 10m
Length of Day
12h 21m
Full, 100% of the Moon is Illuminated
Mar 27
Full
Apr 2
Last Quarter
Apr 10
New
Apr 18
First Quarter
Apr 25
Full

Hourly Weather History & Observations

Time (CDT) Temp. Windchill Dew Point Humidity Pressure Visibility Wind Dir Wind Speed Gust Speed Precip Events Conditions
12:56 AM 35.1 °F 31.0 °F 25.0 °F 67% 30.34 in 10.0 mi NNW 4.6 mph - N/A   Clear
1:56 AM 34.0 °F 29.8 °F 25.0 °F 70% 30.34 in 10.0 mi NW 4.6 mph - N/A   Clear
2:56 AM 30.9 °F - 26.1 °F 82% 30.34 in 10.0 mi Calm Calm - N/A   Clear
3:56 AM 28.9 °F - 26.1 °F 89% 30.34 in 10.0 mi Calm Calm - N/A   Clear
4:56 AM 28.9 °F - 25.0 °F 85% 30.35 in 10.0 mi Calm Calm - N/A   Clear
5:56 AM 28.0 °F - 25.0 °F 88% 30.37 in 10.0 mi Calm Calm - N/A   Clear
6:56 AM 27.0 °F 23.0 °F 24.1 °F 89% 30.38 in 10.0 mi North 3.5 mph - N/A   Clear
7:56 AM 35.1 °F 32.2 °F 28.0 °F 76% 30.40 in 10.0 mi North 3.5 mph - N/A   Clear
8:56 AM 41.0 °F 35.8 °F 26.1 °F 55% 30.41 in 10.0 mi North 8.1 mph - N/A   Clear
9:56 AM 44.1 °F 38.6 °F 21.9 °F 42% 30.42 in 10.0 mi North 10.4 mph 16.1 mph N/A   Clear
10:56 AM 46.9 °F - 24.1 °F 41% 30.40 in 10.0 mi ENE 5.8 mph - N/A   Clear
11:56 AM 50.0 °F - 24.1 °F 36% 30.40 in 10.0 mi NW 6.9 mph - N/A   Clear
12:56 PM 52.0 °F - 24.1 °F 34% 30.37 in 10.0 mi Variable 3.5 mph - N/A   Clear
1:56 PM 55.0 °F - 21.0 °F 27% 30.34 in 10.0 mi North 4.6 mph - N/A   Clear
2:56 PM 57.0 °F - 23.0 °F 27% 30.31 in 10.0 mi West 3.5 mph - N/A   Clear
3:56 PM 59.0 °F - 23.0 °F 25% 30.29 in 10.0 mi West 5.8 mph 16.1 mph N/A   Clear
4:56 PM 59.0 °F - 21.0 °F 23% 30.28 in 10.0 mi WNW 8.1 mph - N/A   Clear
5:56 PM 57.9 °F - 23.0 °F 26% 30.28 in 10.0 mi North 8.1 mph - N/A   Clear
6:56 PM 55.0 °F - 25.0 °F 31% 30.29 in 10.0 mi NW 3.5 mph - N/A   Clear
7:56 PM 50.0 °F - 28.0 °F 43% 30.30 in 10.0 mi Calm Calm - N/A   Clear
8:56 PM 48.0 °F - 28.9 °F 48% 30.31 in 10.0 mi WNW 4.6 mph - N/A   Clear
9:56 PM 42.1 °F 40.2 °F 33.1 °F 70% 30.32 in 10.0 mi NW 3.5 mph - N/A   Clear
10:56 PM 41.0 °F 39.0 °F 33.1 °F 73% 30.30 in 10.0 mi North 3.5 mph - N/A   Clear
11:56 PM 39.0 °F - 33.1 °F 79% 30.30 in 10.0 mi Calm Calm - N/A   Clear